Worcester, MA

2:56 AM EDT on August 23, 2017 (GMT -0400)
Worcester Regional

Weather History for KORH - August, 2014

Change the Weather History Date:

Thursday, August 28, 2014

  Actual Average Record
Temperature  
Mean Temperature 66 °F 67 °F  
Max Temperature 74 °F 75 °F 94 °F (1948)
Min Temperature 57 °F 59 °F 43 °F (1957)
Degree Days  
Heating Degree Days 0 1  
Month to date heating degree days 17 19  
Since 1 June heating degree days 62 116  
Since 1 July heating degree days 17 33  
Cooling Degree Days 1 4  
Month to date cooling degree days 89 136  
Year to date cooling degree days 355 417  
Since 1 June cooling degree days 347 395  
Growing Degree Days 17 (Base 50)    
Moisture  
Dew Point 54 °F    
Average Humidity 69    
Maximum Humidity 93    
Minimum Humidity 44    
Precipitation  
Precipitation 0.00 in 0.10 in 3.81 in (2011)
Month to date precipitation 3.59 3.39  
Year to date precipitation 32.62 31.04  
Snow  
Snow 0.00 in 0.00 in T in (1994)
Month to date snowfall 0.0 0.0  
Since 1 June snowfall 0.0 0.0  
Since 1 July snowfall 0.0 0.0  
Snow Depth 0.00 in    
Sea Level Pressure  
Sea Level Pressure 29.89 in    
Wind  
Wind Speed 11 mph (NNW)    
Max Wind Speed 18 mph    
Max Gust Speed 24 mph    
Visibility 10 miles    
Events      
T = Trace of Precipitation, MM = Missing Value Source: NWS Daily Summary

Daily Weather History Graph

Daily Weather History Graph

Search for Another Location

Airport or City:

Trip Planner

Search our weather history database for the weather conditions in past years. The results will help you decide how hot, cold, wet, or windy it might be!

Date:

Astronomy

Aug. 28, 2014 Rise Set
Actual Time 6:08 AM EDT 7:28 PM EDT
Civil Twilight 5:39 AM EDT 7:57 PM EDT
Nautical Twilight 5:04 AM EDT 8:32 PM EDT
Astronomical Twilight 4:27 AM EDT 9:08 PM EDT
Moon 9:02 AM EDT (8/28) 8:46 PM EDT (8/28)
Length of Visible Light 14h 17m
Length of Day
13h 19m
Waxing Crescent, 8% of the Moon is Illuminated
Aug 28
Waxing Crescent
Sep 2
First Quarter
Sep 8
Full
Sep 15
Last Quarter
Sep 24
New

Hourly Weather History & Observations

Time (EDT) Temp. Dew Point Humidity Pressure Visibility Wind Dir Wind Speed Gust Speed Precip Events Conditions
12:54 AM 69.8 °F 64.4 °F 83% 29.89 in 10.0 mi West 10.4 mph - N/A   Clear
1:54 AM 66.9 °F 64.0 °F 90% 29.86 in 10.0 mi WNW 11.5 mph - N/A   Clear
2:54 AM 66.9 °F 64.0 °F 90% 29.84 in 10.0 mi North 9.2 mph - N/A   Clear
3:54 AM 66.0 °F 62.1 °F 87% 29.84 in 10.0 mi NNW 6.9 mph - N/A   Clear
4:54 AM 64.9 °F 59.0 °F 81% 29.84 in 10.0 mi North 9.2 mph - N/A   Clear
5:54 AM 64.0 °F 57.9 °F 80% 29.85 in 10.0 mi NNW 6.9 mph - N/A   Clear
6:54 AM 64.0 °F 55.9 °F 75% 29.86 in 10.0 mi NNW 10.4 mph - N/A   Mostly Cloudy
7:54 AM 64.9 °F 55.9 °F 73% 29.87 in 10.0 mi NNW 12.7 mph - N/A   Overcast
8:54 AM 66.9 °F 55.9 °F 68% 29.88 in 10.0 mi NNW 12.7 mph - N/A   Clear
9:54 AM 69.1 °F 55.9 °F 63% 29.88 in 10.0 mi North 10.4 mph - N/A   Scattered Clouds
10:54 AM 72.0 °F 55.0 °F 55% 29.86 in 10.0 mi NNW 8.1 mph 18.4 mph N/A   Mostly Cloudy
11:54 AM 73.0 °F 53.1 °F 49% 29.85 in 10.0 mi NNW 13.8 mph 21.9 mph N/A   Scattered Clouds
12:54 PM 73.0 °F 51.1 °F 46% 29.85 in 10.0 mi NW 13.8 mph 20.7 mph N/A   Partly Cloudy
1:54 PM 73.0 °F 52.0 °F 48% 29.85 in 10.0 mi NW 8.1 mph - N/A   Overcast
2:18 PM 73.9 °F 51.1 °F 45% 29.86 in 10.0 mi North 11.5 mph - N/A   Overcast
2:54 PM 73.0 °F 51.1 °F 46% 29.85 in 10.0 mi NW 17.3 mph - N/A   Mostly Cloudy
3:54 PM 73.0 °F 51.1 °F 46% 29.86 in 10.0 mi NW 16.1 mph 24.2 mph N/A   Mostly Cloudy
4:54 PM 71.1 °F 48.9 °F 45% 29.88 in 10.0 mi NNW 15.0 mph - N/A   Mostly Cloudy
5:54 PM 69.1 °F 51.1 °F 53% 29.90 in 10.0 mi NW 8.1 mph - N/A   Overcast
6:54 PM 66.9 °F 48.9 °F 52% 29.93 in 10.0 mi NW 12.7 mph - N/A   Overcast
7:54 PM 64.9 °F 48.9 °F 56% 29.96 in 10.0 mi NW 11.5 mph - N/A   Mostly Cloudy
8:54 PM 62.1 °F 51.1 °F 67% 29.99 in 10.0 mi WNW 8.1 mph - N/A   Mostly Cloudy
9:54 PM 62.1 °F 48.9 °F 62% 30.01 in 10.0 mi NNW 9.2 mph - N/A   Clear
10:54 PM 61.0 °F 48.0 °F 62% 30.01 in 10.0 mi NNW 11.5 mph - N/A   Clear
11:54 PM 59.0 °F 46.9 °F 64% 30.02 in 10.0 mi NNW 12.7 mph - N/A   Clear